TimeEST,TemperatureF,Dew PointF,Humidity,Sea Level PressureIn,VisibilityMPH,Wind Direction,Wind SpeedMPH,Gust SpeedMPH,PrecipitationIn,Events,Conditions,WindDirDegrees,DateUTC
12:53 AM,37.9,37.9,100,30.07,3.0,NNE,6.9,-,0.00,,Overcast,20,2013-02-23 05:53:00
1:25 AM,39.2,37.4,93,30.07,2.5,North,6.9,-,0.01,,Overcast,10,2013-02-23 06:25:00
1:42 AM,39.2,37.4,93,30.08,3.0,North,9.2,-,0.01,,Overcast,10,2013-02-23 06:42:00
1:49 AM,39.2,37.4,93,30.07,2.5,North,8.1,-,0.01,,Overcast,360,2013-02-23 06:49:00
1:53 AM,39.0,37.9,96,30.06,2.0,North,8.1,-,0.01,,Overcast,10,2013-02-23 06:53:00
2:04 AM,37.4,37.4,100,30.06,1.8,North,9.2,-,0.01,Rain,Rain,360,2013-02-23 07:04:00
2:13 AM,37.4,37.4,100,30.06,3.0,North,6.9,-,0.02,Rain,Light Rain,350,2013-02-23 07:13:00
2:26 AM,37.4,37.4,100,30.05,2.5,North,8.1,-,0.02,,Overcast,350,2013-02-23 07:26:00
2:53 AM,39.0,37.9,96,30.03,3.0,North,6.9,-,0.02,,Overcast,360,2013-02-23 07:53:00
3:40 AM,39.2,37.4,93,30.01,2.5,North,8.1,-,N/A,,Overcast,10,2013-02-23 08:40:00
3:53 AM,37.9,37.0,97,29.99,2.5,North,9.2,-,N/A,,Overcast,10,2013-02-23 08:53:00
4:13 AM,37.4,37.4,100,29.99,3.0,North,10.4,-,0.00,,Overcast,10,2013-02-23 09:13:00
4:53 AM,39.0,37.0,93,29.99,6.0,North,6.9,-,0.00,,Overcast,10,2013-02-23 09:53:00
5:53 AM,39.0,37.0,93,30.01,4.0,NNW,8.1,-,N/A,,Overcast,330,2013-02-23 10:53:00
6:53 AM,39.0,37.0,93,29.99,5.0,NNE,10.4,-,0.03,Rain,Light Rain,20,2013-02-23 11:53:00
7:53 AM,39.0,37.9,96,30.00,4.0,NE,3.5,-,0.08,Rain,Light Rain,50,2013-02-23 12:53:00
8:21 AM,39.2,37.4,93,29.99,4.0,NE,3.5,-,0.06,Rain,Light Rain,50,2013-02-23 13:21:00
8:28 AM,39.2,37.4,93,29.98,5.0,NE,6.9,-,0.06,Rain,Light Rain,40,2013-02-23 13:28:00
8:53 AM,39.0,37.9,96,29.96,3.0,NE,4.6,-,0.09,Rain,Light Rain,50,2013-02-23 13:53:00
9:17 AM,39.2,39.2,100,29.98,2.5,North,4.6,-,0.03,Rain,Light Rain,350,2013-02-23 14:17:00
9:27 AM,39.2,39.2,100,29.99,1.5,NNW,5.8,-,0.06,Rain,Rain,330,2013-02-23 14:27:00
9:42 AM,39.2,39.2,100,29.96,2.0,ENE,4.6,-,0.12,Rain,Rain,60,2013-02-23 14:42:00
9:53 AM,39.9,39.0,97,29.95,2.5,NNW,9.2,-,0.17,Rain,Rain,340,2013-02-23 14:53:00
10:04 AM,39.2,39.2,100,29.95,5.0,ENE,5.8,-,0.01,Rain,Light Rain,60,2013-02-23 15:04:00
10:53 AM,42.1,41.0,96,29.94,10.0,North,5.8,-,0.01,,Overcast,10,2013-02-23 15:53:00
11:53 AM,44.1,42.1,93,29.93,10.0,North,4.6,-,N/A,,Overcast,360,2013-02-23 16:53:00
12:53 PM,45.0,42.1,90,29.91,10.0,NW,4.6,-,N/A,,Overcast,320,2013-02-23 17:53:00
1:41 PM,44.6,42.8,93,29.92,5.0,NNW,4.6,-,0.01,,Overcast,330,2013-02-23 18:41:00
1:53 PM,45.0,43.0,93,29.90,6.0,NNW,5.8,-,0.01,,Overcast,340,2013-02-23 18:53:00
2:26 PM,44.6,42.8,93,29.91,2.5,NW,3.5,-,N/A,,Overcast,310,2013-02-23 19:26:00
2:53 PM,45.0,44.1,97,29.87,4.0,Variable,3.5,-,N/A,,Overcast,0,2013-02-23 19:53:00
3:53 PM,46.0,44.1,93,29.86,8.0,North,3.5,-,N/A,,Overcast,360,2013-02-23 20:53:00
4:53 PM,45.0,44.1,97,29.86,10.0,NNW,5.8,-,N/A,,Overcast,340,2013-02-23 21:53:00
5:53 PM,45.0,43.0,93,29.85,7.0,Variable,4.6,-,N/A,,Overcast,0,2013-02-23 22:53:00
6:53 PM,45.0,43.0,93,29.83,7.0,Calm,Calm,-,N/A,,Overcast,0,2013-02-23 23:53:00
7:53 PM,45.0,43.0,93,29.86,6.0,Calm,Calm,-,N/A,,Overcast,0,2013-02-24 00:53:00
8:51 PM,44.6,44.6,100,29.89,2.0,West,4.6,-,N/A,,Overcast,270,2013-02-24 01:51:00
8:53 PM,45.0,44.1,97,29.88,2.0,WSW,6.9,-,N/A,,Overcast,250,2013-02-24 01:53:00
9:01 PM,44.6,42.8,93,29.89,1.8,SW,5.8,-,N/A,,Overcast,230,2013-02-24 02:01:00
9:53 PM,44.1,44.1,100,29.86,1.0,Calm,Calm,-,N/A,,Mist,0,2013-02-24 02:53:00
10:01 PM,44.6,44.6,100,29.87,0.8,SSW,3.5,-,N/A,,Mist,210,2013-02-24 03:01:00
10:53 PM,44.1,44.1,100,29.85,1.0,SW,4.6,-,N/A,,Mist,230,2013-02-24 03:53:00
11:48 PM,44.6,44.6,100,29.82,2.0,SSE,4.6,-,N/A,,Overcast,160,2013-02-24 04:48:00
11:53 PM,44.1,44.1,100,29.80,1.5,SSE,3.5,-,N/A,,Overcast,150,2013-02-24 04:53:00